Location: Unspecified
(52.0000°N, 4.4000°E)
Time: 22:07:19
(UTC+00:00)

SPOT 3 Rocket - Pass Details

Date: 14 May 2025
Orbit: 775 x 790 km, 98.5° (Epoch: 15 June)

Event Time Altitude Azimuth Distance (km) Brightness Sun altitude
Exits shadow 21:02:47 13° 166° (SSE) 2,133 5.2 -11.4°
Maximum altitude 21:07:26 84° 254° (WSW) 790 3.6 -11.9°
Drops below altitude 10° 21:12:37 10° 344° (NNW) 2,338 7.3 -12.3°
Sets 21:14:56 0° 345° (NNW) 3,270 8.2 -12.5°
